Location: Kott?ru
(16.6209°N, 80.6208°E)
Time: 08:06:13
(UTC+00:00)

Max Valier Satellite - Pass Details

Date: 13 June 2023
Orbit: 426 x 438 km, 97.1° (Epoch: 01 October)

Event Time Altitude Azimuth Distance (km) Brightness Sun altitude
Exits shadow 14:09:13 17° 154° (SSE) 1,231 ? -13.3°
Maximum altitude 14:11:42 58° 78° (ENE) 540 ? -13.8°
Drops below altitude 10° 14:15:03 10° 359° (N) 1,591 ? -14.5°
Sets 14:17:05 0° 355° (N) 2,454 ? -14.9°
